Regional Weather Roundup
Issued by NWS Northern Indiana

Home | Current Version | Previous Version | Text Only | Print | Product List | Glossary Off
Versions: 1 2 3 4 5 6 7 8 9 10 11 12 13 14 15 16 17 18 19 20 21 22 23 24 25 26 27 28 29 30 31 32 33 34 35 36 37 38 39 40 41 42 43 44 45 46 47 48 49 50

000
ASUS43 KIWX 040000
RWRIWX

KIWX WEATHER ROUNDUP
NATIONAL WEATHER SERVICE NORTHERN INDIANA
800 PM EDT FRI JUL 03 2015

NOTE: "FAIR" INDICATES FEW OR NO CLOUDS BELOW 12,000 FEET WITH NO
SIGNIFICANT WEATHER AND/OR OBSTRUCTIONS TO VISIBILITY.

* THESE STATIONS ARE NOT UNDER NWS QUALITY CONTROL. THEY ALSO MAY NOT
  REPORT WEATHER SUCH AS PRECIPITATION OR FOG.

INZ001>027-040100-
NORTHERN INDIANA

CITY           SKY/WX    TMP DP  RH WIND       PRES   REMARKS
GARY*          MOSUNNY   68  57  68 NE6       29.93S
SOUTH BEND     SUNNY     72  56  57 N8        29.92S
6HR MIN TEMP:  72; 6HR MAX TEMP:  77;

ELKHART*       SUNNY     73  54  49 CALM      29.92S
GOSHEN         MOSUNNY   74  56  53 E3        29.91S
6HR MIN TEMP:  72; 6HR MAX TEMP:  77;

ANGOLA*          N/A     73  55  53 E5        29.91F
FORT WAYNE     PTSUNNY   71  60  68 N5        29.91S
6HR MIN TEMP:  71; 6HR MAX TEMP:  76;

PERU/GRISSOM   MOSUNNY   73  62  68 NE6       29.89S
6HR MIN TEMP:  73; 6HR MAX TEMP:  75; 6HR PCP: TRACE;


$$
INZ028>050-040100-
CENTRAL INDIANA

CITY           SKY/WX    TMP DP  RH WIND       PRES   REMARKS
LAFAYETTE      PTSUNNY   72  62  71 NE5       29.89S
6HR MIN TEMP:  71; 6HR MAX TEMP:  76;

KOKOMO*        MOSUNNY   73  63  68 N3        29.89F
6HR MIN TEMP:  70; 6HR MAX TEMP:  73; 6HR PCP:  0.03;

MUNCIE*        PTSUNNY   73  61  65 NE10      29.89S
6HR MIN TEMP:  73; 6HR MAX TEMP:  78;

INDIANAPOLIS   CLOUDY    73  62  68 N12       29.86F
6HR MIN TEMP:  72; 6HR MAX TEMP:  76;


$$
MIZ043>046-050>051-056>058-064>065-071>073-077>080-040100-
SOUTHWEST LOWER MICHIGAN

CITY           SKY/WX    TMP DP  RH WIND       PRES   REMARKS
BATTLE CREEK   SUNNY     75  52  44 N3        29.92S
6HR MIN TEMP:  72; 6HR MAX TEMP:  77;

BENTON HARBOR  SUNNY     66  58  75 VRB3      29.93S
6HR MIN TEMP:  66; 6HR MAX TEMP:  73;

COLDWATER*     SUNNY     70  54  56 N3        29.92S
6HR MIN TEMP:  70; 6HR MAX TEMP:  74;

HILLSDALE*     SUNNY     71  55  58 CALM      29.93S
HOLLAND        SUNNY     70  53  54 W6        29.94R
6HR MIN TEMP:  70; 6HR MAX TEMP:  76;

GRAND RAPIDS   MOSUNNY   73  51  46 E5        29.92S
6HR MIN TEMP:  71; 6HR MAX TEMP:  76;

KALAMAZOO      SUNNY     75  52  44 CALM      29.92S
6HR MIN TEMP:  72; 6HR MAX TEMP:  76;

STURGIS*       SUNNY     72  55  56 CALM      29.91F
THREE RIVERS*  FAIR      73  53  49 CALM      29.92S
6HR MIN TEMP:  71; 6HR MAX TEMP:  75;


$$
OHZ001>008-015>018-024>025-040100-
NORTHWEST OHIO

CITY           SKY/WX    TMP DP  RH WIND       PRES   REMARKS
DEFIANCE       MOSUNNY   73  57  57 E5        29.91R
6HR MIN TEMP:  73; 6HR MAX TEMP:  77;

FINDLAY        MOSUNNY   71  54  54 NE12      29.90S
6HR MIN TEMP:  71; 6HR MAX TEMP:  77;

TOLEDO EXPRESS SUNNY     70  53  54 NE8       29.91S
6HR MIN TEMP:  70; 6HR MAX TEMP:  75;

TOLEDO METCALF SUNNY     70  50  49 E7        29.92F
6HR MIN TEMP:  68; 6HR MAX TEMP:  73;

LIMA           MOSUNNY   70  59  68 N9        29.90S
6HR MIN TEMP:  70; 6HR MAX TEMP:  76;


$$
AND FOR LAKE MICHIGAN COASTAL AND OPEN LAKE BUOY OBSERVATIONS

STATION/POSITION TEMP    WIND        PRES    VSBY  WAVE
                 AIR SEA DIR/SP/G                  HT/PER
                 (F)     (DEG/KT/KT) (MB)    (MI)  (FT/S)
CALUMET HARBOR    66      30/  5/  6   N/A
MICHIGAN CITY     63      20/  5/  5   N/A
BURNS HARBOR      67      50/  8/  9 1013.9F
SAINT JOSEPH      66     360/  5/  7   N/A
4 MI NW BRIDGMAN  64 63                N/A           1/ 2
MICHIGAN CITY     65 65   40/  6/  8   N/A           1/ 2

$$
&&



USA.gov is the U.S. government's official web portal to all federal, state and local government web resources and services.